PROGRESS-MS 32

Last updated on Sun Apr 12 2026 00:02:13 GMT+0000 (Coordinated Universal Time)

1 65586U 25204A 26101.16675691 .00005918 00000+0 11600-3 0 9997 2 65586 51.6326 271.7779 0006464 298.5374 61.4964 15.48869271554503
UTC large
Height (km)
Speed (km/s)
/
Latitude / Longitude
Inclination (degrees)
Orbital Period (minutes)
Azimuth
Elevation
Range (km)
Doppler Factor

Next 0 passes for location: London (51.5072 / 0.1276)

No passes found over London.
PROGRESS-MS 32